Location: Palomar Mountain Lodge
(33.3110°N, 116.8495°W)
Time: 00:11:07
(UTC-07:00)

CARTOSAT-1 - Pass Details

Date: 12 July 2018
Orbit: 617 x 619 km, 97.8° (Epoch: 24 September)

Event Time Altitude Azimuth Distance (km) Brightness Sun altitude
Exits shadow 22:51:15 53° 343° (NNW) 757 4.2 -27.7°
Drops below altitude 10° 22:54:35 10° 347° (NNW) 1,986 7.0 -28.0°
Sets 22:56:47 0° 348° (NNW) 2,896 8.1 -28.3°
